Measurements were made at the meteorological tower in Juelich (50.90 N / 6.40 E) at an altitude of 20 m,
"Instrument: Carbon Dioxide Isotope Analyzer (CCIA), Los Gatos Inc.",
Responsible PI: Dr. Marc von Hobe; Forschungszentrum Juelich GmbH; IEK-7; email: m.von.hobe@fz-juelich.de,
NaN or negative numbers are fill values (i.e. no valid measurements were made at that time),
Uncertainties are given as the 1-sigma standard deviation over each 10 minute intervals. In each interval ~600 individual measurements are carried out so that the standard error of the mean is approximately sigma/sqrt(600).,
time_utc,CO2_ppm,stdev_CO2_ppm,H2O_ppm,stdev_H2O_ppm
"2014-09-01 00:05:00 000",410.998,1.99839,14226.6,53.6051
"2014-09-01 00:15:00 000",412.852,3.29718,14318.3,18.3993
"2014-09-01 00:25:00 000",413.566,4.67979,14374.4,23.5815
"2014-09-01 00:35:00 000",410.414,4.31447,14419.5,33.0867
"2014-09-01 00:45:00 000",406.825,2.67369,14487.8,54.1108
"2014-09-01 00:55:00 000",407.395,3.01733,14568.5,37.9844
"2014-09-01 01:05:00 000",408.685,3.84051,14613.9,21.5607
"2014-09-01 01:15:00 000",405.987,1.94634,14640.3,41.7959
"2014-09-01 01:25:00 000",404.529,1.60199,14693.9,31.0708
"2014-09-01 01:35:00 000",404.591,1.13030,14711.2,32.7833
"2014-09-01 01:45:00 000",404.890,1.52060,14692.4,20.5173
"2014-09-01 01:55:00 000",405.452,1.28742,14747.9,30.1674
"2014-09-01 02:05:00 000",405.120,1.14427,14681.9,25.9065
"2014-09-01 02:15:00 000",405.712,1.15972,14662.3,30.1689
"2014-09-01 02:25:00 000",405.744,1.23533,14644.2,24.2245
"2014-09-01 02:35:00 000",405.361,0.544836,14626.7,24.9288
"2014-09-01 02:45:00 000",407.241,1.09440,14620.9,21.5453
"2014-09-01 02:55:00 000",408.481,1.66459,14640.1,19.1675
"2014-09-01 03:05:00 000",409.004,1.52665,14661.2,19.8324
"2014-09-01 03:15:00 000",410.690,2.07803,14678.8,19.7335
"2014-09-01 03:25:00 000",410.353,2.23149,14733.7,40.0622
"2014-09-01 03:35:00 000",407.614,1.90521,14699.7,31.3538
"2014-09-01 03:45:00 000",403.511,2.25533,14710.5,28.5082
"2014-09-01 03:55:00 000",404.275,1.66691,14727.4,29.8087
"2014-09-01 04:05:00 000",404.468,1.96768,14680.8,41.3847
"2014-09-01 04:15:00 000",401.799,2.40021,14636.0,59.0365
"2014-09-01 04:25:00 000",400.156,0.955795,14621.3,29.3770
"2014-09-01 04:35:00 000",400.384,1.15017,14643.1,19.2778
"2014-09-01 04:45:00 000",401.065,1.40146,14668.5,24.4289
"2014-09-01 04:55:00 000",400.698,1.21444,14672.9,27.9600
"2014-09-01 05:05:00 000",399.978,0.981232,14678.2,33.0412
"2014-09-01 05:15:00 000",401.281,1.24612,14737.1,66.7996
"2014-09-01 05:25:00 000",401.356,0.886429,14684.3,56.4689
"2014-09-01 05:35:00 000",401.819,0.787238,14722.2,33.5987
"2014-09-01 05:45:00 000",402.461,0.707771,14760.0,22.5064
"2014-09-01 05:55:00 000",403.209,0.878186,14803.7,27.2446
"2014-09-01 06:05:00 000",403.310,0.518515,14893.8,44.7003
"2014-09-01 06:15:00 000",404.241,1.64829,15063.9,37.0888
"2014-09-01 06:25:00 000",404.522,1.17507,15090.7,48.5446
"2014-09-01 06:35:00 000",402.042,0.790534,15272.1,60.5854
"2014-09-01 06:45:00 000",401.650,1.42282,15251.2,62.2106
"2014-09-01 06:55:00 000",398.750,1.14400,15235.1,92.3814
"2014-09-01 07:05:00 000",397.608,1.48198,15414.5,27.1125
"2014-09-01 07:15:00 000",394.754,0.609693,15476.8,70.3058
"2014-09-01 07:25:00 000",393.143,0.702613,15517.2,83.9396
"2014-09-01 07:35:00 000",391.536,1.27454,15561.4,49.0336
"2014-09-01 07:45:00 000",390.552,0.935773,15842.3,149.270
"2014-09-01 07:55:00 000",392.647,0.878881,15851.0,109.385
"2014-09-01 08:05:00 000",390.648,0.933235,16412.4,160.030
"2014-09-01 08:15:00 000",389.039,0.665701,15933.1,264.395
"2014-09-01 08:25:00 000",388.822,0.753430,15999.7,238.354
"2014-09-01 08:35:00 000",389.014,1.54385,16606.2,322.037
"2014-09-01 08:45:00 000",389.120,0.973475,16996.3,340.033
"2014-09-01 08:55:00 000",388.644,0.818095,17287.6,365.048
"2014-09-01 09:05:00 000",385.550,1.55305,17142.7,268.665
"2014-09-01 09:15:00 000",386.792,1.56894,17556.3,311.239
"2014-09-01 09:25:00 000",387.663,1.08347,16657.0,292.873
"2014-09-01 09:35:00 000",385.580,1.17421,17399.5,588.879
"2014-09-01 09:45:00 000",385.581,0.667272,17661.3,153.189
"2014-09-01 09:55:00 000",385.413,0.811486,18341.8,219.779
"2014-09-01 10:05:00 000",387.607,0.901919,17736.6,274.359
"2014-09-01 10:15:00 000",387.526,0.900811,17950.4,329.114
"2014-09-01 10:25:00 000",386.133,0.935862,18072.2,472.990
"2014-09-01 10:35:00 000",384.698,0.781872,18402.5,655.147
"2014-09-01 10:45:00 000",384.918,0.758397,16705.3,215.564
"2014-09-01 10:55:00 000",384.727,0.686353,15384.4,741.178
"2014-09-01 11:05:00 000",384.728,0.972476,14072.9,285.273
"2014-09-01 11:15:00 000",385.822,0.883369,14174.1,301.488
"2014-09-01 11:25:00 000",385.931,1.02001,14501.0,273.055
"2014-09-01 11:35:00 000",386.382,1.07475,13858.0,742.014
"2014-09-01 11:45:00 000",385.862,0.916249,13647.1,522.250
"2014-09-01 11:55:00 000",385.784,0.981473,13566.3,258.719
"2014-09-01 12:05:00 000",385.829,0.952517,14401.4,293.070
"2014-09-01 12:15:00 000",386.639,0.723167,14684.3,216.345
"2014-09-01 12:25:00 000",387.320,1.06889,14569.4,205.443
"2014-09-01 12:35:00 000",387.467,0.979677,14642.7,435.808
"2014-09-01 12:45:00 000",387.536,1.07255,14396.2,527.284
"2014-09-01 12:55:00 000",387.614,0.815851,14103.5,432.692
"2014-09-01 13:05:00 000",387.188,0.995407,13989.0,430.878
"2014-09-01 13:15:00 000",386.492,0.893104,13561.6,728.535
"2014-09-01 13:25:00 000",386.269,0.821029,12978.2,365.730
"2014-09-01 13:35:00 000",386.089,0.807233,13041.5,438.754
"2014-09-01 13:45:00 000",385.350,0.915328,13213.3,323.207
"2014-09-01 13:55:00 000",385.091,0.850095,13346.6,321.504
"2014-09-01 14:05:00 000",385.514,1.09545,13269.5,428.425
"2014-09-01 14:15:00 000",386.470,1.05250,12862.6,430.405
"2014-09-01 14:25:00 000",386.384,0.904331,12432.3,535.037
"2014-09-01 14:35:00 000",386.221,1.09641,12677.0,581.749
"2014-09-01 14:45:00 000",386.785,1.26871,12883.0,400.515
"2014-09-01 14:55:00 000",386.352,1.22298,14111.5,1266.56
"2014-09-01 15:05:00 000",385.529,0.895331,13310.5,404.101
"2014-09-01 15:15:00 000",385.200,0.841534,13004.1,686.675
"2014-09-01 15:25:00 000",385.855,0.718192,12748.3,247.825
"2014-09-01 15:35:00 000",385.965,0.920817,12829.4,301.799
"2014-09-01 15:45:00 000",385.260,0.633503,12849.1,171.947
"2014-09-01 15:55:00 000",385.153,2.34259,13575.4,521.721
"2014-09-01 16:05:00 000",384.227,1.58698,13643.7,303.278
"2014-09-01 16:15:00 000",384.591,1.00907,13523.9,172.070
"2014-09-01 16:25:00 000",386.993,0.954765,13573.0,289.282
"2014-09-01 16:35:00 000",387.476,0.512509,13630.3,163.697
"2014-09-01 16:45:00 000",387.147,0.449808,13547.5,184.183
"2014-09-01 16:55:00 000",387.527,0.553273,13277.0,198.491
"2014-09-01 17:05:00 000",387.074,0.702478,13322.8,162.114
"2014-09-01 17:15:00 000",385.587,0.453099,13669.2,126.857
"2014-09-01 17:25:00 000",385.520,0.416266,13863.8,97.1263
"2014-09-01 17:35:00 000",386.785,0.727336,14070.3,123.757
"2014-09-01 17:45:00 000",388.170,0.545188,14209.2,64.8628
"2014-09-01 17:55:00 000",388.495,0.509307,14104.5,127.589
"2014-09-01 18:05:00 000",390.156,0.625044,14364.0,119.522
"2014-09-01 18:15:00 000",396.914,5.44498,14988.1,235.903
"2014-09-01 18:25:00 000",396.239,4.36152,14953.6,417.947
"2014-09-01 18:35:00 000",395.373,2.14337,14567.6,225.177
"2014-09-01 18:45:00 000",398.433,1.94287,14822.2,113.615
"2014-09-01 18:55:00 000",402.351,1.03074,15234.3,88.3331
"2014-09-01 19:05:00 000",405.234,1.58108,15299.4,32.9924
"2014-09-01 19:15:00 000",406.115,2.72918,15467.3,155.451
"2014-09-01 19:25:00 000",410.785,1.12001,15344.0,79.3691
"2014-09-01 19:35:00 000",413.161,0.924964,15574.4,59.7926
"2014-09-01 19:45:00 000",416.493,2.09004,15812.7,46.4412
"2014-09-01 19:55:00 000",423.674,2.19843,15743.9,142.392
"2014-09-01 20:05:00 000",427.930,1.16950,15881.1,45.0265
"2014-09-01 20:15:00 000",427.518,1.66316,15748.5,113.058
"2014-09-01 20:25:00 000",428.530,2.92619,15589.0,81.2541
"2014-09-01 20:35:00 000",425.013,1.32342,15462.8,68.6438
"2014-09-01 20:45:00 000",432.769,4.97297,15282.2,59.6668
"2014-09-01 20:55:00 000",431.059,3.18319,15219.1,86.3971
"2014-09-01 21:05:00 000",429.713,1.72202,15280.2,54.0963
"2014-09-01 21:15:00 000",431.006,1.64585,15251.6,76.1657
"2014-09-01 21:25:00 000",433.041,5.25022,14965.9,115.600
"2014-09-01 21:35:00 000",431.700,5.53088,14650.0,99.0856
"2014-09-01 21:45:00 000",429.371,0.919968,14469.7,114.045
"2014-09-01 21:55:00 000",431.807,2.81435,14336.6,135.996
"2014-09-01 22:05:00 000",431.800,1.78198,14147.4,60.0018
"2014-09-01 22:15:00 000",430.709,3.19735,14328.0,88.5044
"2014-09-01 22:25:00 000",429.767,0.872490,14251.8,129.151
"2014-09-01 22:35:00 000",428.778,0.820558,14211.4,97.6246
"2014-09-01 22:45:00 000",431.699,1.59257,14431.6,126.541
"2014-09-01 22:55:00 000",433.635,0.727313,14707.0,77.3936
"2014-09-01 23:05:00 000",439.329,1.80324,14429.2,237.347
"2014-09-01 23:15:00 000",445.283,4.05576,13698.6,74.9587
"2014-09-01 23:25:00 000",447.191,4.56075,13654.1,36.7252
"2014-09-01 23:35:00 000",442.288,1.71849,13896.0,155.926
"2014-09-01 23:45:00 000",440.958,2.23001,14173.8,56.6173
"2014-09-01 23:55:00 000",447.230,1.35020,14526.7,64.1990
"2014-09-02 00:05:00 000",450.341,3.82359,14460.0,27.8487
"2014-09-02 00:15:00 000",446.925,3.17025,14469.4,75.0747
"2014-09-02 00:25:00 000",453.435,2.89909,14475.1,86.3194
"2014-09-02 00:35:00 000",451.914,3.28401,14478.8,40.0090
"2014-09-02 00:45:00 000",453.089,5.35038,14172.3,210.613
"2014-09-02 00:55:00 000",452.660,3.98991,13527.0,170.669
"2014-09-02 01:05:00 000",445.041,7.17923,13693.9,94.5579
"2014-09-02 01:15:00 000",434.215,1.49101,13753.6,152.069
"2014-09-02 01:25:00 000",434.819,2.03019,13060.5,160.351
"2014-09-02 01:35:00 000",439.043,1.64052,12794.0,162.104
"2014-09-02 01:45:00 000",443.584,1.63127,12938.9,56.1458
"2014-09-02 01:55:00 000",444.501,3.46923,12848.9,168.392
"2014-09-02 02:05:00 000",447.757,1.85933,12526.1,78.6583
"2014-09-02 02:15:00 000",449.628,2.44332,12295.8,195.863
"2014-09-02 02:25:00 000",451.246,2.68075,11873.1,47.2416
"2014-09-02 02:35:00 000",449.351,2.27351,12038.9,124.580
"2014-09-02 02:45:00 000",452.316,2.51739,12187.7,144.184
"2014-09-02 02:55:00 000",457.072,1.52266,12765.3,92.7314
"2014-09-02 03:05:00 000",456.242,3.29673,12676.5,124.510
"2014-09-02 03:15:00 000",456.996,1.74219,12041.9,138.203
"2014-09-02 03:25:00 000",455.826,2.76132,12137.1,172.568
"2014-09-02 03:35:00 000",455.740,3.73437,12704.5,104.615
"2014-09-02 03:45:00 000",460.710,2.90309,12687.7,99.5995
"2014-09-02 03:55:00 000",457.089,3.31207,12680.8,34.6142
"2014-09-02 04:05:00 000",459.131,3.61298,12934.0,128.806
"2014-09-02 04:15:00 000",457.400,4.27902,13213.7,78.0150
"2014-09-02 04:25:00 000",454.702,4.31605,13328.1,51.1534
"2014-09-02 04:35:00 000",453.695,7.09735,13084.9,82.7079
"2014-09-02 04:45:00 000",454.016,3.78776,12725.9,180.151
"2014-09-02 04:55:00 000",452.410,1.86440,12492.1,74.8941
"2014-09-02 05:05:00 000",452.432,2.39591,12855.6,98.2862
"2014-09-02 05:15:00 000",451.894,4.48378,12764.6,116.043
"2014-09-02 05:25:00 000",452.705,1.51650,12553.8,85.6696
"2014-09-02 05:35:00 000",455.392,1.12217,12641.0,143.929
"2014-09-02 05:45:00 000",454.846,0.826870,13255.1,175.249
"2014-09-02 05:55:00 000",458.743,1.69114,13924.8,126.179
"2014-09-02 06:05:00 000",462.905,1.91374,14203.2,63.9910
"2014-09-02 06:15:00 000",462.178,1.43827,14447.4,83.1608
"2014-09-02 06:25:00 000",457.259,1.89732,14673.3,76.4186
"2014-09-02 06:35:00 000",452.580,1.87125,14893.0,70.3120
"2014-09-02 06:45:00 000",448.946,2.66697,15182.2,88.3548
"2014-09-02 06:55:00 000",445.995,1.50692,15564.4,86.5172
"2014-09-02 07:05:00 000",444.625,1.80559,15889.3,71.7237
"2014-09-02 07:15:00 000",446.520,1.02971,16076.4,160.643
"2014-09-02 07:25:00 000",436.289,2.90489,16343.7,102.041
"2014-09-02 07:35:00 000",434.112,2.06284,16651.7,101.828
"2014-09-02 07:45:00 000",432.956,1.76291,16953.2,206.421
"2014-09-02 07:55:00 000",429.530,2.74798,17054.8,276.315
"2014-09-02 08:05:00 000",422.134,1.49882,17886.6,131.227
"2014-09-02 08:15:00 000",417.662,1.45335,18179.6,228.554
"2014-09-02 08:25:00 000",411.188,2.91806,19235.7,405.752
"2014-09-02 08:35:00 000",409.164,1.73880,20182.1,243.771
"2014-09-02 08:45:00 000",407.114,1.62475,20535.2,159.517
"2014-09-02 08:55:00 000",406.598,1.83427,21031.7,285.768
"2014-09-02 09:05:00 000",405.781,0.807600,20478.5,264.604
"2014-09-02 09:15:00 000",406.989,2.01115,20249.7,587.988
"2014-09-02 09:25:00 000",411.063,1.09883,17126.9,1267.84
"2014-09-02 09:35:00 000",410.817,1.36386,14255.3,568.269
"2014-09-02 09:45:00 000",403.850,2.24292,13781.3,430.090
"2014-09-02 09:55:00 000",406.744,0.795880,13285.9,387.396
"2014-09-02 10:05:00 000",402.543,2.05742,13593.5,310.770
"2014-09-02 10:15:00 000",396.755,0.865514,13426.9,384.354
"2014-09-02 10:25:00 000",397.274,0.908368,13285.2,284.076
"2014-09-02 10:35:00 000",398.248,0.897819,13465.4,269.266
"2014-09-02 10:45:00 000",395.586,1.50194,13154.3,267.384
"2014-09-02 10:55:00 000",394.993,1.39084,13358.3,377.753
"2014-09-02 11:05:00 000",393.507,1.14480,13148.3,296.020
"2014-09-02 11:15:00 000",394.726,1.36450,13517.5,339.220
"2014-09-02 11:25:00 000",391.830,1.21843,13203.6,416.682
"2014-09-02 11:35:00 000",388.965,0.997572,12978.8,306.211
"2014-09-02 11:45:00 000",387.607,0.845213,13010.6,310.741
"2014-09-02 11:55:00 000",387.127,0.928516,13113.7,383.664
"2014-09-02 12:05:00 000",386.762,0.907250,13404.3,339.883
"2014-09-02 12:15:00 000",386.059,0.655014,13246.4,537.722
"2014-09-02 12:25:00 000",385.560,0.963551,13167.2,459.124
"2014-09-02 12:35:00 000",385.821,0.844982,13090.5,229.584
"2014-09-02 12:45:00 000",385.787,1.05889,13194.6,423.052
"2014-09-02 12:55:00 000",385.428,0.965434,13432.1,404.483
"2014-09-02 13:05:00 000",384.148,1.21292,13664.4,305.509
"2014-09-02 13:15:00 000",383.251,0.681875,13889.8,238.830
"2014-09-02 13:25:00 000",383.332,0.990433,14196.0,387.650
"2014-09-02 13:35:00 000",382.619,1.07552,14159.8,303.454
"2014-09-02 13:45:00 000",382.881,1.12618,14289.9,418.307
"2014-09-02 13:55:00 000",384.084,0.800406,13995.3,272.730
"2014-09-02 14:05:00 000",384.142,0.628254,13994.7,250.267
"2014-09-02 14:15:00 000",384.171,0.748821,13967.3,243.286
"2014-09-02 14:25:00 000",383.988,0.724551,13808.1,181.590
"2014-09-02 14:35:00 000",383.648,0.841583,14325.5,429.947
"2014-09-02 14:45:00 000",384.811,0.812512,15196.0,203.408
"2014-09-02 14:55:00 000",384.642,0.747587,15863.7,185.909
"2014-09-02 15:05:00 000",384.539,0.697330,15705.5,166.767
"2014-09-02 15:15:00 000",384.995,1.04881,15895.7,242.811
"2014-09-02 15:25:00 000",387.133,0.777625,15798.7,128.940
"2014-09-02 15:35:00 000",388.330,1.56616,16310.5,201.345
"2014-09-02 15:45:00 000",394.908,2.09004,16501.2,151.558
"2014-09-02 15:55:00 000",401.691,1.30856,16808.6,127.456
"2014-09-02 16:05:00 000",401.628,1.13561,16642.6,126.487
"2014-09-02 16:15:00 000",398.623,0.715325,16791.0,108.417
"2014-09-02 16:25:00 000",395.263,1.13859,16935.5,160.690
"2014-09-02 16:35:00 000",396.065,1.93477,16921.1,114.357
"2014-09-02 16:45:00 000",399.551,1.05756,16998.8,95.1916
"2014-09-02 16:55:00 000",401.316,1.06968,16994.9,112.176
"2014-09-02 17:05:00 000",399.292,0.704131,16986.5,103.050
"2014-09-02 17:15:00 000",400.279,0.426528,16891.5,97.3215
"2014-09-02 17:25:00 000",399.688,0.650136,16862.9,57.8414
"2014-09-02 17:35:00 000",398.646,0.706787,16888.2,38.0784
"2014-09-02 17:45:00 000",397.516,1.10054,16837.0,71.8216
"2014-09-02 17:55:00 000",397.421,0.647859,16810.0,42.6487
"2014-09-02 18:05:00 000",398.577,0.609539,16854.6,51.1870
"2014-09-02 18:15:00 000",400.154,0.541105,16875.6,31.4908
"2014-09-02 18:25:00 000",402.112,1.44013,16890.5,57.6114
"2014-09-02 18:35:00 000",403.177,1.18084,16919.4,52.0724
"2014-09-02 18:45:00 000",402.645,0.677021,16829.1,55.2856
"2014-09-02 18:55:00 000",402.351,0.576077,16718.3,33.4014
"2014-09-02 19:05:00 000",402.094,0.492916,16654.4,43.3492
"2014-09-02 19:15:00 000",402.333,0.528330,16646.2,31.9907
"2014-09-02 19:25:00 000",402.478,0.473542,16601.0,33.7070
"2014-09-02 19:35:00 000",403.351,0.830140,16594.8,36.0430
"2014-09-02 19:45:00 000",404.035,0.820099,16577.1,52.4927
"2014-09-02 19:55:00 000",405.262,1.61865,16541.3,91.8606
"2014-09-02 20:05:00 000",407.170,2.06557,16469.5,144.841
"2014-09-02 20:15:00 000",410.681,2.18997,16502.0,66.2495
"2014-09-02 20:25:00 000",412.569,3.07625,16006.0,115.492
"2014-09-02 20:35:00 000",414.362,4.43058,15679.7,214.181
"2014-09-02 20:45:00 000",409.063,3.42018,16042.9,133.675
"2014-09-02 20:55:00 000",408.994,1.32388,15486.5,213.297
"2014-09-02 21:05:00 000",409.935,1.19971,15314.6,147.777
"2014-09-02 21:15:00 000",411.645,1.37822,15246.7,296.257
"2014-09-02 21:25:00 000",411.738,0.776947,15207.0,108.943
"2014-09-02 21:35:00 000",413.408,1.89995,14996.5,218.010
"2014-09-02 21:45:00 000",421.295,6.28118,14690.7,178.761
"2014-09-02 21:55:00 000",417.536,2.02542,14350.1,86.0738
"2014-09-02 22:05:00 000",420.303,2.78667,14294.9,53.8859
"2014-09-02 22:15:00 000",422.127,1.32300,14138.1,43.6096
"2014-09-02 22:25:00 000",421.441,2.09722,14264.6,79.7542
"2014-09-02 22:35:00 000",418.953,2.22138,14194.3,147.761
"2014-09-02 22:45:00 000",416.843,1.91158,14398.2,135.914
"2014-09-02 22:55:00 000",422.054,6.71501,14313.7,89.8154
"2014-09-02 23:05:00 000",425.209,5.51118,14090.2,65.7598
"2014-09-02 23:15:00 000",421.730,2.90017,14085.8,102.844
"2014-09-02 23:25:00 000",418.155,1.98730,14243.1,102.943
"2014-09-02 23:35:00 000",421.429,4.26922,14279.0,122.881
"2014-09-02 23:45:00 000",426.254,3.90879,14368.7,120.697
"2014-09-02 23:55:00 000",429.113,3.63069,14266.0,141.624
"2014-09-03 00:05:00 000",427.889,2.09845,14008.0,147.818
"2014-09-03 00:15:00 000",427.921,1.34610,13969.1,116.781
"2014-09-03 00:25:00 000",429.936,1.40686,13519.1,129.236
"2014-09-03 00:35:00 000",430.011,2.21413,13668.5,113.325
"2014-09-03 00:45:00 000",433.629,4.06768,13377.9,85.3692
"2014-09-03 00:55:00 000",434.237,3.45485,13572.2,160.665
"2014-09-03 01:05:00 000",437.759,8.27195,13489.9,100.827
"2014-09-03 01:15:00 000",435.084,4.63306,13588.9,88.7962
"2014-09-03 01:25:00 000",442.105,2.27925,13458.8,152.183
"2014-09-03 01:35:00 000",442.190,5.57359,13161.1,90.7748
"2014-09-03 01:45:00 000",447.160,3.22770,12921.5,58.4396
"2014-09-03 01:55:00 000",446.734,3.37524,12995.5,46.3711
"2014-09-03 02:05:00 000",442.282,4.73165,13094.9,53.8221
"2014-09-03 02:15:00 000",443.326,9.34769,13153.5,120.699
"2014-09-03 02:25:00 000",437.198,5.63354,13163.2,70.2736
"2014-09-03 02:35:00 000",435.062,6.78073,13240.9,154.520
"2014-09-03 02:45:00 000",434.575,2.27906,13493.1,65.1617
"2014-09-03 02:55:00 000",437.734,2.73278,13440.7,89.9918
"2014-09-03 03:05:00 000",430.163,2.48084,13934.5,222.817
"2014-09-03 03:15:00 000",427.630,0.973392,14231.7,76.9268
"2014-09-03 03:25:00 000",425.180,1.30989,14387.4,33.3585
"2014-09-03 03:35:00 000",422.864,0.777137,14427.2,47.6171
"2014-09-03 03:45:00 000",421.745,0.626217,14359.6,55.4012
"2014-09-03 03:55:00 000",421.762,1.66414,14325.4,62.0200
"2014-09-03 04:05:00 000",421.176,3.75985,14341.9,39.3300
"2014-09-03 04:15:00 000",416.278,1.45145,14244.2,53.4369
"2014-09-03 04:25:00 000",414.838,1.30959,14102.4,57.0887
"2014-09-03 04:35:00 000",414.690,1.39592,14041.3,44.8469
"2014-09-03 04:45:00 000",413.661,1.83325,14013.4,45.2659
"2014-09-03 04:55:00 000",410.845,1.42663,14268.7,56.2502
"2014-09-03 05:05:00 000",409.505,1.19018,14078.0,75.3860
"2014-09-03 05:15:00 000",410.156,1.74062,13912.5,38.5294
"2014-09-03 05:25:00 000",408.627,1.20076,13932.9,41.1628
"2014-09-03 05:35:00 000",406.905,0.803989,14047.2,133.618
"2014-09-03 05:45:00 000",406.741,0.549357,14469.7,115.392
"2014-09-03 05:55:00 000",406.270,1.12907,14883.3,145.145
"2014-09-03 06:05:00 000",407.685,1.63600,15088.9,43.0303
"2014-09-03 06:15:00 000",407.443,1.48772,15192.4,39.7672
"2014-09-03 06:25:00 000",406.636,1.68055,15295.6,30.7627
"2014-09-03 06:35:00 000",406.045,2.06477,15349.1,36.4943
"2014-09-03 06:45:00 000",404.647,1.23647,15475.4,37.2787
"2014-09-03 06:55:00 000",403.160,0.976007,15564.1,60.7335
"2014-09-03 07:05:00 000",404.477,3.75113,15667.5,77.2703
"2014-09-03 07:15:00 000",401.715,0.605457,15839.8,81.0606
"2014-09-03 07:25:00 000",401.729,0.589699,16100.7,92.6463
"2014-09-03 07:35:00 000",401.587,0.818004,16451.5,95.8689
"2014-09-03 07:45:00 000",399.508,1.25961,17094.9,153.492
"2014-09-03 07:55:00 000",398.406,2.56644,17526.8,116.656
"2014-09-03 08:05:00 000",396.091,1.66218,17966.0,134.242
"2014-09-03 08:15:00 000",394.671,0.801876,18143.5,96.0276
"2014-09-03 08:25:00 000",394.713,1.23086,18528.0,91.7440
"2014-09-03 08:35:00 000",394.811,0.681329,18873.2,221.618
"2014-09-03 08:45:00 000",391.862,2.45436,19464.6,204.604
"2014-09-03 08:55:00 000",388.982,0.911012,18948.9,207.742
"2014-09-03 09:05:00 000",389.016,1.03781,18583.3,107.037
"2014-09-03 09:15:00 000",390.382,1.31623,18830.9,329.970
"2014-09-03 09:25:00 000",391.458,1.28945,19520.6,114.251
"2014-09-03 09:35:00 000",395.723,2.47743,19543.3,482.178
"2014-09-03 09:45:00 000",399.668,1.32346,17500.7,467.093
"2014-09-03 09:55:00 000",396.986,0.842706,14500.6,1195.19
"2014-09-03 10:05:00 000",394.803,1.22439,13227.2,199.408
"2014-09-03 10:15:00 000",393.925,1.05202,13263.9,300.100
"2014-09-03 10:25:00 000",399.601,5.72002,13147.2,248.982
"2014-09-03 10:35:00 000",398.319,2.25637,13074.3,325.050
"2014-09-03 10:45:00 000",391.832,2.92817,13039.6,268.283
"2014-09-03 10:55:00 000",393.803,6.26083,12938.8,251.014
"2014-09-03 11:05:00 000",387.512,1.80549,12883.0,351.136
"2014-09-03 11:15:00 000",387.845,0.808174,12956.3,335.085
"2014-09-03 11:25:00 000",387.457,0.626449,12716.6,305.336
"2014-09-03 11:35:00 000",387.600,0.789890,12663.6,289.811
"2014-09-03 11:45:00 000",387.838,0.575016,12817.8,202.307
"2014-09-03 11:55:00 000",387.355,0.683491,12934.0,272.763
"2014-09-03 12:05:00 000",386.624,0.710723,12739.1,267.149
"2014-09-03 12:15:00 000",386.624,0.598057,12470.5,239.455
"2014-09-03 12:25:00 000",386.031,0.694449,12552.5,298.177
"2014-09-03 12:35:00 000",385.291,1.02867,13128.0,470.196
"2014-09-03 12:45:00 000",382.901,0.879808,13218.0,268.437
"2014-09-03 12:55:00 000",383.000,0.701151,13113.5,229.996
"2014-09-03 13:05:00 000",381.858,0.834578,13274.1,282.810
"2014-09-03 13:15:00 000",381.504,0.752049,13542.7,168.582
"2014-09-03 13:25:00 000",381.273,0.678158,13919.3,199.857
"2014-09-03 13:35:00 000",381.854,0.693973,14304.8,202.461
"2014-09-03 13:45:00 000",381.702,1.07308,14647.7,286.662
"2014-09-03 13:55:00 000",381.590,0.906224,14395.7,227.555
"2014-09-03 14:05:00 000",382.746,0.778504,14129.2,208.294
"2014-09-03 14:15:00 000",382.504,0.487541,14230.3,160.320
"2014-09-03 14:25:00 000",383.262,0.689956,14105.0,208.444
"2014-09-03 14:35:00 000",383.200,0.549060,14219.7,183.531
"2014-09-03 14:45:00 000",382.712,0.469774,14272.2,109.348
"2014-09-03 14:55:00 000",382.235,0.483382,14391.0,104.026
"2014-09-03 15:05:00 000",382.650,0.610969,14540.1,129.142
"2014-09-03 15:15:00 000",383.086,0.419150,14570.0,116.770
"2014-09-03 15:25:00 000",383.330,0.691445,14557.4,142.336
"2014-09-03 15:35:00 000",383.835,0.494766,14265.2,81.1144
"2014-09-03 15:45:00 000",383.646,0.455521,14320.6,112.338
"2014-09-03 15:55:00 000",383.722,0.408705,14253.5,65.7502
"2014-09-03 16:05:00 000",383.320,0.465249,14405.1,140.790
"2014-09-03 16:15:00 000",383.015,0.734875,14521.2,140.556
"2014-09-03 16:25:00 000",383.066,1.39807,14571.2,176.826
"2014-09-03 16:35:00 000",383.077,0.829146,14469.9,105.421
"2014-09-03 16:45:00 000",389.644,6.82876,15233.1,498.244
"2014-09-03 16:55:00 000",383.376,2.26505,14627.9,193.441
"2014-09-03 17:05:00 000",384.220,2.92668,14888.2,189.471
"2014-09-03 17:15:00 000",383.094,1.34484,14724.7,162.055
"2014-09-03 17:25:00 000",382.360,0.842584,14721.7,93.2018
"2014-09-03 17:35:00 000",386.433,3.55303,14987.5,231.911
"2014-09-03 17:45:00 000",385.304,1.49704,15112.3,102.149
"2014-09-03 17:55:00 000",385.297,0.938588,15125.2,89.8450
"2014-09-03 18:05:00 000",384.354,0.756425,15182.8,75.4452
"2014-09-03 18:15:00 000",385.545,0.710191,15215.2,88.7023
"2014-09-03 18:25:00 000",386.073,0.478568,15073.7,39.9212